[[{"header":{"parameterUnit":"m.s-1","parameterCategory":1,"la1":30.2991,"la2":30.254,"lo1":-89.0895,"lo2":-89.0444,"dy":0.0017,"dx":0.0017,"nx":28,"ny":28,"refTime":"2023-04-20T21:00:00:Z","depth":0,"parameterNumber":2,"parameterNumberName":"U-component_of_WINDS"},"data":[0,0,0,0,0,0,0,0,0,0,0,0,0,0,0,0,0,0,0,0,0,0,0,0,0,0,0,0,0,0,0,0,0,0,0,0,0,0,0,0,0,0,0,0,0,0,0,0,0,0,0,0,0,0,0,0,0,0,-1.6061,-1.606,0,-1.598,-1.5979,-1.5978,-1.5896,-1.5894,-1.5893,-1.5892,-1.5809,-1.5807,-1.5806,0,0,0,0,0,0,0,0,0,0,0,0,0,-1.6144,-1.6143,-1.6061,-1.606,-1.6059,-1.598,-1.5979,-1.5978,-1.5896,-1.5894,-1.5893,-1.5892,-1.5809,-1.5808,-1.5806,0,0,0,0,0,0,0,0,0,0,0,0,0,-1.609,-1.6143,-1.6061,-1.6008,-1.6003,-1.598,-1.5979,-1.5978,-1.5896,-1.5894,-1.5893,-1.5891,-1.5809,-1.5808,-1.5806,-1.5829,0,0,-1.58,-1.58,0,0,0,0,0,0,0,0,-1.6093,-1.6087,-1.6017,-1.6012,-1.6006,-1.5946,-1.5978,-1.5928,-1.5896,-1.5937,-1.5892,-1.589,-1.5856,-1.585,-1.5838,-1.5825,-1.5821,-1.58,-1.5799,-1.5798,-1.5798,0,0,0,0,0,0,0,-1.6097,-1.609,-1.6029,-1.6016,-1.6009,-1.5989,-1.5979,-1.5968,-1.5906,-1.5933,-1.5927,-1.5918,-1.5852,-1.584,-1.5836,-1.582,-1.58,-1.5799,-1.5798,-1.5797,-1.5821,-1.5823,0,0,0,0,0,0,-1.6109,-1.6094,-1.6031,-1.6026,-1.6046,-1.5989,-1.5978,-1.5967,-1.5906,-1.5896,-1.592,-1.5915,-1.5844,-1.5838,-1.5833,-1.5855,-1.5798,-1.5797,-1.5796,-1.5819,-1.5821,-1.5823,0,0,0,0,0,0,-1.6111,-1.6104,-1.6035,-1.6058,-1.6048,-1.5989,-1.5977,-1.5966,-1.5954,-1.5896,-1.5885,-1.5919,-1.5843,-1.5835,-1.583,-1.5851,-1.5796,-1.5794,-1.5817,-1.582,-1.5822,-1.5901,0,0,0,0,0,0,-1.6114,-1.6105,-1.6113,-1.6059,-1.6047,-1.6034,-1.5979,-1.5966,-1.5952,-1.5944,-1.5893,-1.5883,-1.5841,-1.5833,-1.5829,-1.5848,-1.5793,-1.5815,-1.5818,-1.5821,-1.5896,-1.5906,-1.5914,0,0,0,0,0,-1.6117,-1.6139,-1.6114,-1.6107,-1.6056,-1.6035,-1.6028,-1.598,-1.5954,-1.5961,-1.5924,-1.5884,-1.585,-1.5834,-1.5827,-1.5846,-1.5814,-1.5817,-1.5821,-1.5892,-1.5904,-1.5914,0,0,0,0,0,0,-1.6196,-1.6131,-1.6103,-1.6107,-1.6078,-1.6022,-1.603,-1.5994,-1.5971,-1.5965,-1.5906,-1.5895,-1.5897,-1.5871,-1.5854,-1.5865,-1.5826,-1.5829,-1.5882,-1.5893,-1.5902,-1.5908,-1.5792,0,0,0,0,0,-1.6215,-1.6204,-1.6146,-1.6156,-1.6143,-1.6089,-1.6078,-1.6044,-1.601,-1.5997,-1.596,-1.5929,-1.5911,-1.5901,-1.5881,-1.5892,-1.588,-1.5902,-1.5911,-1.5919,-1.5922,-1.5927,-1.5936,-1.5836,-1.5836,-1.5836,0,0,-1.6252,-1.6214,-1.6211,-1.6171,-1.6144,-1.6134,-1.6079,-1.607,-1.6062,-1.5996,-1.5989,-1.5961,-1.5923,-1.5926,-1.5926,-1.5905,-1.5947,-1.5924,-1.593,-1.5929,-1.5931,-1.5941,-1.595,-1.5838,-1.5838,-1.5837,0,0,-1.6314,-1.6285,-1.629,-1.6264,-1.6224,-1.6188,-1.619,-1.6139,-1.6118,-1.611,-1.606,-1.605,-1.602,-1.5995,-1.5978,-1.6033,-1.5995,-1.6028,-1.6075,-1.608,-1.6088,-1.6094,-1.6114,-1.6122,-1.6031,-1.6031,-1.6032,0,-1.6365,-1.6348,-1.6297,-1.6292,-1.6276,-1.6216,-1.622,-1.6198,-1.6153,-1.6144,-1.6121,-1.6083,-1.6053,-1.605,-1.6063,-1.6052,-1.6052,-1.6033,-1.6091,-1.6097,-1.6102,-1.6121,-1.6128,-1.6036,-1.6035,-1.6035,-1.6034,0,-1.6413,-1.6403,-1.6411,-1.637,-1.6355,-1.6355,-1.6304,-1.6295,-1.6262,-1.6229,-1.6223,-1.6184,-1.6156,-1.6153,-1.612,-1.6146,-1.6134,-1.6102,-1.6061,-1.6117,-1.6133,-1.614,-1.6042,-1.604,-1.6039,-1.6038,0,0,-1.6523,-1.6454,-1.6458,-1.6439,-1.6391,-1.6382,-1.6379,-1.6352,-1.6346,-1.6317,-1.6314,-1.6291,-1.6261,-1.6242,-1.6206,-1.6211,-1.6257,-1.6178,-1.6176,-1.6194,-1.6282,-1.6307,-1.6316,-1.6232,-1.6233,-1.6234,-1.6286,0,-1.6578,-1.6569,-1.6523,-1.6528,-1.6518,-1.6461,-1.6458,-1.6429,-1.6398,-1.6385,-1.635,-1.6335,-1.6297,-1.6285,-1.6287,-1.6251,-1.6274,-1.6246,-1.6228,-1.6228,-1.6239,-1.6324,-1.635,-1.6401,-1.6292,-1.6293,-1.6293,0,-1.664,-1.6616,-1.662,-1.6572,-1.6566,-1.6565,-1.6537,-1.6525,-1.649,-1.6467,-1.6447,-1.6407,-1.6401,-1.6363,-1.6354,-1.6337,-1.6327,-1.6308,-1.6309,-1.6305,-1.6264,-1.6323,-1.6416,-1.6424,-1.6303,-1.6302,-1.6301,0,-1.672,-1.6689,-1.6687,-1.6673,-1.6617,-1.6617,-1.6594,-1.6558,-1.6545,-1.652,-1.6511,-1.6486,-1.6472,-1.6454,-1.6408,-1.6385,-1.6405,-1.6363,-1.6386,-1.6387,-1.6392,-1.6393,-1.6486,-1.6386,-1.6386,-1.6386,-1.6386,0,-1.6786,-1.6791,-1.6723,-1.6722,-1.6726,-1.6673,-1.6678,-1.665,-1.6618,-1.6611,-1.656,-1.6554,-1.6494,-1.6481,-1.6446,-1.6444,-1.6438,-1.642,-1.641,-1.6424,-1.6427,-1.6417,-1.6412,-1.6388,-1.6387,-1.6387,-1.6387,0,-1.6876,-1.683,-1.6825,-1.6773,-1.676,-1.6766,-1.6721,-1.6718,-1.6684,-1.6676,-1.6671,-1.6618,-1.66,-1.6553,-1.6523,-1.6499,-1.6508,-1.649,-1.652,-1.6514,-1.654,-1.6538,-1.6629,-1.6639,-1.6534,-1.6535,-1.6535,0,-1.6921,-1.6923,-1.6872,-1.6863,-1.6842,-1.6829,-1.6816,-1.6764,-1.6752,-1.6713,-1.6715,-1.6694,-1.6674,-1.6649,-1.6608,-1.6585,-1.6566,-1.66,-1.6562,-1.6577,-1.6567,-1.6568,-1.6568,-1.6608,-1.661,-1.6611,-1.6612,0,-1.7006,-1.6983,-1.6966,-1.6941,-1.6926,-1.6904,-1.6879,-1.6875,-1.6817,-1.6806,-1.6788,-1.6773,-1.6743,-1.6722,-1.6693,-1.6669,-1.6631,-1.6624,-1.6628,-1.6643,-1.666,-1.6651,-1.6543,-1.6622,-1.6621,-1.662,-1.662,-1.6619,-1.7075,-1.7075,-1.7039,-1.7021,-1.6997,-1.6974,-1.6969,-1.6935,-1.6919,-1.6891,-1.6861,-1.6847,-1.6812,-1.6769,-1.6748,-1.6736,-1.6715,-1.6721,-1.6723,-1.6725,-1.6732,-1.6662,-1.673,-1.673,-1.6729,-1.6729,-1.6729,0,-1.7158,-1.7132,-1.7116,-1.7083,-1.7069,-1.7034,-1.7005,-1.6996,-1.6984,-1.6955,-1.6936,-1.6916,-1.6896,-1.6854,-1.683,-1.6828,-1.681,-1.6824,-1.6824,-1.6819,-1.6751,-1.675,-1.6839,-1.6839,-1.6839,-1.6839,-1.6839,-1.6839,-1.7199,-1.7197,-1.7171,-1.7156,-1.713,-1.7115,-1.7102,-1.7081,-1.7058,-1.7037,-1.7021,-1.6993,-1.6959,-1.6932,-1.6913,-1.6901,-1.6894,-1.6914,-1.6896,-1.6834,-1.6824,-1.6814,-1.6812,-1.6913,-1.6913,-1.6965,-1.6966,-1.6966]},{"header":{"parameterUnit":"m.s-1","parameterCategory":1,"la1":30.2991,"la2":30.254,"lo1":-89.0895,"lo2":-89.0444,"dy":0.0017,"dx":0.0017,"nx":28,"ny":28,"refTime":"2023-04-20T21:00:00:Z","depth":0,"parameterNumber":3,"parameterNumberName":"V-component_of_WINDS"},"data":[0,0,0,0,0,0,0,0,0,0,0,0,0,0,0,0,0,0,0,0,0,0,0,0,0,0,0,0,0,0,0,0,0,0,0,0,0,0,0,0,0,0,0,0,0,0,0,0,0,0,0,0,0,0,0,0,0,0,3.8829,3.883,0,3.8933,3.8934,3.8935,3.8934,3.8932,3.8931,3.893,3.9032,3.9036,3.904,0,0,0,0,0,0,0,0,0,0,0,0,0,3.8626,3.863,3.8829,3.883,3.8831,3.8932,3.8934,3.8935,3.8934,3.8932,3.8931,3.8929,3.903,3.9035,3.904,0,0,0,0,0,0,0,0,0,0,0,0,0,3.872,3.8631,3.8829,3.8843,3.8845,3.8932,3.8934,3.8936,3.8934,3.8932,3.893,3.8928,3.9029,3.9035,3.9041,3.9118,0,0,3.9059,3.9061,0,0,0,0,0,0,0,0,3.8715,3.8728,3.884,3.8842,3.8845,3.8918,3.89,3.8997,3.8935,3.8901,3.893,3.8927,3.8995,3.9004,3.9028,3.9123,3.9128,3.9059,3.9063,3.9066,3.9067,0,0,0,0,0,0,0,3.8708,3.8723,3.887,3.8841,3.8845,3.8843,3.8854,3.8918,3.8958,3.8903,3.8904,3.8916,3.8996,3.9022,3.903,3.9129,3.9059,3.9065,3.9068,3.9071,3.9294,3.9297,0,0,0,0,0,0,3.8699,3.8718,3.8866,3.8873,3.8774,3.8849,3.8861,3.8897,3.8957,3.8965,3.8918,3.8916,3.9013,3.9023,3.9034,3.913,3.9066,3.9071,3.9075,3.9292,3.9295,3.9298,0,0,0,0,0,0,3.8695,3.8713,3.8862,3.8795,3.8814,3.8854,3.8894,3.89,3.8926,3.8968,3.8975,3.8937,3.9012,3.9025,3.9098,3.9134,3.9074,3.9079,3.9289,3.9293,3.9296,3.9322,0,0,0,0,0,0,3.8689,3.8711,3.8742,3.8796,3.8818,3.8926,3.8897,3.8903,3.8936,3.8935,3.8988,3.8995,3.9011,3.9089,3.9104,3.9141,3.9084,3.9286,3.9291,3.9295,3.9319,3.9326,3.9333,0,0,0,0,0,3.8682,3.8744,3.8743,3.8761,3.8858,3.8928,3.894,3.8959,3.8939,3.897,3.8998,3.8993,3.9127,3.9097,3.9113,3.9152,3.9284,3.929,3.9295,3.9315,3.9325,3.9333,0,0,0,0,0,0,3.8691,3.8751,3.8751,3.8833,3.8876,3.8928,3.8967,3.8968,3.9016,3.9013,3.9032,3.9044,3.9117,3.9142,3.9107,3.9231,3.9203,3.9212,3.9213,3.9222,3.9229,3.9222,3.9089,0,0,0,0,0,3.8703,3.8756,3.8805,3.8873,3.8894,3.8927,3.8958,3.8969,3.9014,3.9031,3.9064,3.9106,3.9158,3.9191,3.9241,3.9322,3.9334,3.9357,3.9364,3.937,3.9378,3.9423,3.9434,3.9315,3.9315,3.9315,0,0,3.8727,3.8767,3.8799,3.8876,3.891,3.8964,3.8942,3.9,3.904,3.9039,3.9111,3.9136,3.9184,3.9262,3.9298,3.9285,3.9413,3.9377,3.9381,3.9386,3.943,3.9441,3.9451,3.9319,3.9318,3.9317,0,0,3.88,3.8835,3.8896,3.8931,3.8984,3.9005,3.902,3.9072,3.9089,3.9162,3.9163,3.921,3.9298,3.9333,3.9362,3.9448,3.9446,3.9464,3.9502,3.9546,3.9556,3.9564,3.9596,3.9607,3.9471,3.9471,3.9471,0,3.8823,3.8906,3.8926,3.8985,3.9019,3.9022,3.9083,3.9116,3.9181,3.9204,3.9189,3.9301,3.9333,3.942,3.9441,3.9464,3.9481,3.9458,3.9553,3.9562,3.957,3.9601,3.9612,3.9473,3.9473,3.9473,3.9472,0,3.8933,3.899,3.9033,3.9098,3.9136,3.9196,3.9224,3.926,3.9268,3.9291,3.9364,3.9403,3.9462,3.9483,3.949,3.957,3.9561,3.9549,3.9521,3.9583,3.9612,3.9624,3.9476,3.9475,3.9474,3.9474,0,0,3.9015,3.9091,3.9106,3.9137,3.9195,3.924,3.9299,3.9358,3.9389,3.9433,3.9484,3.9559,3.9549,3.9582,3.9593,3.9632,3.9699,3.9615,3.9617,3.9631,3.9791,3.9801,3.9814,3.9698,3.97,3.9702,3.9788,0,3.9094,3.9202,3.9222,3.9316,3.9369,3.9373,3.9425,3.9466,3.9489,3.9537,3.9561,3.9615,3.9597,3.9617,3.9655,3.9683,3.9732,3.9677,3.9745,3.9747,3.9734,3.9829,3.9839,3.9919,3.9799,3.9801,3.9802,0,3.9202,3.9252,3.9352,3.9404,3.9427,3.9474,3.953,3.9575,3.9622,3.9636,3.9673,3.968,3.9741,3.971,3.9795,3.9757,3.9785,3.9803,3.9807,3.9814,3.9779,3.9841,3.9944,3.9957,3.982,3.9819,3.9818,0,3.9254,3.9345,3.9417,3.9443,3.9505,3.9538,3.9565,3.961,3.9644,3.9692,3.9715,3.9769,3.9798,3.9839,3.986,3.9836,3.9944,3.9914,3.9957,3.9957,3.9981,3.9979,4.0092,3.9997,3.9997,3.9997,3.9996,0,3.9342,3.9403,3.9441,3.9486,3.9554,3.9575,3.9642,3.9668,3.9708,3.9757,3.9762,3.9808,3.9832,3.9881,3.9897,3.9965,3.9978,3.9991,3.9995,3.9991,3.999,4.0011,4.0007,4.0,3.9999,3.9998,3.9998,0,3.9411,3.9439,3.9518,3.9572,3.9586,3.9634,3.968,3.9722,3.9745,3.9807,3.9822,3.9858,3.9916,3.994,4.0011,4.0022,4.01,4.0099,4.0085,4.0087,4.0129,4.0125,4.026,4.028,4.0171,4.0172,4.0173,0,3.9466,3.9514,3.9572,3.9606,3.9635,3.9689,3.9725,3.9748,3.9784,3.9841,3.9877,3.9935,3.9983,4.0075,4.0107,4.0161,4.0162,4.0205,4.017,4.0165,4.0164,4.0162,4.0167,4.0212,4.0213,4.0214,4.0215,0,3.9561,3.9573,3.9625,3.9682,3.9725,3.9771,3.9815,3.9842,3.9871,3.9912,3.9972,4.001,4.0083,4.014,4.0197,4.0223,4.0224,4.0225,4.0239,4.0236,4.0227,4.0234,4.0105,4.0222,4.0222,4.0221,4.0221,4.022,3.9626,3.9669,3.9718,3.9775,3.9812,3.9853,3.9897,3.9925,3.9976,4.0039,4.0048,4.0113,4.0158,4.0234,4.0263,4.0313,4.0302,4.032,4.0325,4.033,4.0334,4.0218,4.0323,4.0323,4.0322,4.0322,4.0322,0,3.9723,3.9755,3.9808,3.9871,3.9916,3.9914,3.9963,4.0001,4.0058,4.0101,4.0149,4.0218,4.0274,4.031,4.0367,4.04,4.0402,4.0414,4.0413,4.0419,4.0339,4.0323,4.0412,4.0412,4.0412,4.0412,4.0412,4.0412,3.9779,3.9852,3.9869,3.996,3.999,4.0055,4.0084,4.0122,4.0156,4.0234,4.0282,4.0305,4.0345,4.0405,4.0456,4.0465,4.0486,4.05,4.0508,4.0434,4.0424,4.0415,4.04,4.0504,4.0504,4.0584,4.0585,4.0585]}]]